Regional Weather Roundup
Issued by NWS

Home | Current Version | Previous Version | Graphics & Text | Print | Product List | Glossary On
Versions: 1 2 3 4 5 6 7 8 9 10 11 12 13 14 15 16 17 18 19 20 21 22 23 24 25 26 27 28 29 30 31 32 33 34 35 36 37 38 39 40 41 42 43 44 45 46 47 48 49 50
000
ASUS43 KLOT 310100
RWRIL

ILLINOIS REGIONAL WEATHER ROUNDUP
NATIONAL WEATHER SERVICE CHICAGO/ROMEOVILLE IL
800 PM CDT THU OCT 30 2014

NOTE: "FAIR" INDICATES FEW OR NO CLOUDS BELOW 12,000 FEET WITH NO
SIGNIFICANT WEATHER AND/OR OBSTRUCTIONS TO VISIBILITY.

* THESE STATIONS ARE NOT UNDER NWS QUALITY CONTROL. THEY ALSO MAY NOT
  REPORT WEATHER SUCH AS PRECIPITATION OR FOG.

ILZ001-002-007-009-015-016-024-310200-
NORTHWEST ILLINOIS

CITY           SKY/WX    TMP DP  RH WIND       PRES   REMARKS
MOLINE         CLOUDY    47  38  71 S5        30.08R
STERLING*      CLOUDY    46  37  71 CALM      30.08S
$$

ILZ003-004-008-010-011-017-018-310200-
NORTH CENTRAL ILLINOIS

CITY           SKY/WX    TMP DP  RH WIND       PRES   REMARKS
ROCKFORD       CLOUDY    47  35  63 W3        30.08F
FREEPORT*      CLOUDY    46  36  68 W3        30.09S
$$

ILZ005-006-012>014-019>023-310200-
NORTHEAST ILLINOIS

CITY           SKY/WX    TMP DP  RH WIND       PRES   REMARKS
CHICAGO-OHARE  CLOUDY    48  36  63 W6        30.05F
CHICAGO-MIDWAY CLOUDY    50  36  58 W5        30.06S
AURORA         MOCLDY    45  36  70 W6        30.07S
WAUKEGAN       CLOUDY    45  34  65 CALM      30.04F
DUPAGE AIRPORT PTCLDY    47  36  65 W6        30.06S
WHEELING       CLOUDY    50  35  56 W3        30.07F
NORTHERLY ISL    N/A     50  35  56 W6          N/A
$$

LMZ740>746-310200-
SOUTHERN LAKE MICHIGAN

STATION/POSITION SKY/WX   TEMP    WIND        PRES    VSBY  WAVE
                          AIR SEA DIR/SP/G                  HT/PER
                          (F)     (DEG/KT/KT) (MB)    (MI)  (FT/S)
SOUTHERN BUOY              50 53  240/  8/ 10 1017.8F         1/ 4
WAUKEGAN HARBOR            50     280/  6/  8   N/A
HARRISON CRIB              50     250/  9/ 12   N/A
BURNHAM HARBOR             49     290/  4/  9   N/A
CALUMET HARBOR             49     230/  3/  5 1016.8F
MICHIGAN CITY              49     190/  8/ 10   N/A
$$

ILZ025>027-034>036-040-047-049-050-058-095>099-310200-
WEST-CENTRAL ILLINOIS

CITY           SKY/WX    TMP DP  RH WIND       PRES   REMARKS
QUINCY         CLOUDY    49  42  77 NE7       30.05R
GALESBURG*     CLOUDY    44  41  89 NE5       30.08S
$$

ILZ028>032-037-038-041>044-048-051>054-059>061-310200-
CENTRAL ILLINOIS

CITY           SKY/WX    TMP DP  RH WIND       PRES   REMARKS
DECATUR        LGT RAIN  47  44  90 NE5       30.09R
PEORIA         MOCLDY    46  43  89 CALM      30.08S FOG
LINCOLN*       LGT RAIN  48  44  84 SE7       30.05F
SPRINGFIELD    CLOUDY    50  43  77 E9        30.06S
TAYLORVILLE    NOT AVBL
$$

ILZ033-039-045-046-055>057-062-063-310200-
EAST-CENTRAL ILLINOIS

CITY           SKY/WX    TMP DP  RH WIND       PRES   REMARKS
CHAMPAIGN      CLOUDY    47  44  90 W3        30.08R
MATTOON        CLOUDY    48  44  86 N3        30.06R
$$

ILZ079-100>102-310200-
SOUTHWEST ILLINOIS

CITY           SKY/WX    TMP DP  RH WIND       PRES   REMARKS
BELLEVILLE     CLOUDY    52  51  97 CALM      30.03S
CAHOKIA*       CLOUDY    52  49  89 SE3       30.03F
$$

ILZ064>066-069>071-074>076-080>082-084>086-088>090-092>094-310200-
SOUTH-CENTRAL ILLINOIS

CITY           SKY/WX    TMP DP  RH WIND       PRES   REMARKS
CARBONDALE     LGT RAIN  53  46  77 CALM      30.04F
MT. VERNON     CLOUDY    54  41  62 CALM      30.05S
$$

ILZ067-068-072-073-078-083-087-091-310200-
SOUTHEAST ILLINOIS

CITY           SKY/WX    TMP DP  RH WIND       PRES   REMARKS
LAWRENCEVILLE  LGT RAIN  51  31  46 CALM      30.06R
CARMI*         LGT RAIN  54  46  74 CALM      30.05S
$$

ABBREVIATIONS USED IN REMARKS
   TC - TEMPERATURE IN CELSIUS
  WCI - WIND CHILL INDEX
   HX - HEAT INDEX
  VSB - VISIBILITY
$$




USA.gov is the U.S. government's official web portal to all federal, state and local government web resources and services.